Weerstation Grootegast  Weerstation Grootegast


15 daagse weersverwachting Mulhouse (FR)

  • Overzicht
  • Per uur
  • 15 dagen
  • Extra
  • Vergelijk
  • Kaarten
  • Dagkaart
  • Meer »
  • Info
  • Statistieken
  • Directe link
    Temp 6h Neerslag Wind  
 07:57     18:35    Daglengte: 10:38 Vandaag
14:00
15°
25.2 mm
3
20:00
14°
32.5 mm
2
 07:58     18:33    Daglengte: 10:35 Morgen
02:00
13°
41.6 mm
1
08:00
11°
 
1
14:00
20°
 
2
20:00
17°
 
1
 08:00     18:31    Daglengte: 10:31 Maandag 21 Okt
02:00
14°
 
3
08:00
13°
19.1 mm
3
14:00
15°
45.0 mm
4
20:00
12°
73.7 mm
2
 08:01     18:30    Daglengte: 10:29 Dinsdag 22 Okt
02:00
84.1 mm
1
Locatie info
Region: Grand Est
Latitude: 47.7517°N
Longitude: 7.3437°E
240 masl
Postcode: 68100
Temp/Neerslag /Baro Onweer/Dauwpunt
    Temp Baro 1h Neerslag Dauwpunt Wind UV Bewolking  
 07:57     18:35    Daglengte: 10:38 Vandaag
10:00
13°
1010.2 hPa 11.1 mm
49%
11.7°
3
Windvlaag: 3.5 m/s
91%
11:00
13°
1010.1 hPa 3.7 mm
82%
12.1°
3
Windvlaag: 3.5 m/s
88%
12:00
14°
1009.9 hPa 3.6 mm
82%
12.2°
3
Windvlaag: 3.2 m/s
91%
13:00
14°
1009.3 hPa 3.3 mm
82%
12.6°
3
Windvlaag: 3.2 m/s
90%
14:00
15°
1008.8 hPa 3.5 mm
82%
12.8°
3
Windvlaag: 2.6 m/s
89%
15:00
15°
1008.4 hPa 3.9 mm
82%
12.8°
2
Windvlaag: 2.6 m/s
90%
16:00
15°
1008.0 hPa 4.5 mm
82%
13.2°
2
Windvlaag: 2.1 m/s
90%
17:00
15°
1008.1 hPa 4.9 mm
82%
13.4°
1
Windvlaag: 1.3 m/s
90%
18:00
14°
1007.9 hPa 6.8 mm
82%
13.4°
2
Windvlaag: 1.8 m/s
90%
19:00
14°
1007.9 hPa 6.0 mm
82%
13.1°
2
Windvlaag: 0.9 m/s
89%
20:00
14°
1008.8 hPa 6.5 mm
82%
13.0°
2
Windvlaag: 1.4 m/s
91%
21:00
14°
1008.5 hPa 6.7 mm
82%
12.9°
2
Windvlaag: 1.3 m/s
89%
22:00
14°
1008.4 hPa 8.9 mm
82%
12.8°
2
Windvlaag: 1.3 m/s
88%
23:00
13°
1008.3 hPa 9.0 mm
82%
12.2°
1
Windvlaag: 1.4 m/s
80%
 07:58     18:33    Daglengte: 10:35 Morgen
00:00
13°
1008.4 hPa 8.6 mm
82%
12.2°
1
Windvlaag: 1 m/s
65%
01:00
13°
1008.2 hPa 8.4 mm
82%
12.0°
1
Windvlaag: 0.5 m/s
45%
02:00
13°
1008.2 hPa
76%
11.7°
1
Windvlaag: 0.4 m/s
49%
03:00
12°
1008.1 hPa
72%
11.0°
1
Windvlaag: 0.4 m/s
59%
04:00
12°
1007.7 hPa
70%
10.6°
1
Windvlaag: 0.4 m/s
34%
05:00
12°
1007.7 hPa
22%
10.1°
1
Windvlaag: 0.4 m/s
18%
06:00
11°
1007.9 hPa
23%
9.8°
1
Windvlaag: 1.1 m/s
39%
07:00
11°
1007.9 hPa
14%
9.5°
1
Windvlaag: 1.2 m/s
42%
08:00
11°
1007.9 hPa
14%
9.3°
1
Windvlaag: 0.9 m/s
34%
09:00
12°
1008.0 hPa
14%
9.8°
1
Windvlaag: 1.5 m/s
35%
10:00
13°
1007.8 hPa
15%
10.6°
1
Windvlaag: 1.5 m/s
49%
11:00
15°
1007.5 hPa
14%
11.6°
1
Windvlaag: 1.9 m/s
56%
12:00
17°
1007.1 hPa
14%
11.9°
1
Windvlaag: 2 m/s
67%
13:00
18°
1006.8 hPa
22%
12.4°
2
Windvlaag: 2.1 m/s
48%
14:00
20°
1006.2 hPa
74%
12.6°
2
Windvlaag: 2.3 m/s
61%
15:00
21°
1006.0 hPa
21%
12.3°
2
Windvlaag: 2.1 m/s
39%
16:00
21°
1005.6 hPa
14%
12.1°
2
Windvlaag: 1.8 m/s
44%
17:00
20°
1005.5 hPa
14%
13.7°
2
Windvlaag: 1.8 m/s
50%
18:00
18°
1005.8 hPa
14%
12.6°
2
Windvlaag: 1.2 m/s
43%
19:00
16°
1006.5 hPa
14%
11.5°
2
Windvlaag: 1.3 m/s
61%
20:00
17°
1007.5 hPa
22%
11.5°
1
Windvlaag: 1.2 m/s
87%
21:00
16°
1008.2 hPa
15%
12.2°
2
Windvlaag: 1.3 m/s
78%
22:00
15°
1008.9 hPa
22%
12.7°
2
Windvlaag: 1.2 m/s
47%
23:00
15°
1009.2 hPa
14%
12.4°
1
Windvlaag: 1.7 m/s
59%
 08:00     18:31    Daglengte: 10:31 Maandag 21 Okt
00:00
14°
1009.9 hPa
17%
11.7°
2
Windvlaag: 1.9 m/s
60%
01:00
14°
1010.6 hPa
16%
11.2°
2
Windvlaag: 2.1 m/s
55%
02:00
14°
1011.1 hPa
14%
11.2°
3
Windvlaag: 2.4 m/s
57%
03:00
14°
1012.3 hPa
64%
11.6°
4
Windvlaag: 4.4 m/s
82%
04:00
14°
1012.6 hPa
72%
10.9°
4
Windvlaag: 4.2 m/s
78%
05:00
14°
1013.3 hPa
98%
11.1°
3
Windvlaag: 4.1 m/s
96%
06:00
14°
1014.2 hPa 6.4 mm
99%
11.2°
2
Windvlaag: 3.8 m/s
95%
07:00
13°
1015.2 hPa 6.3 mm
100%
11.2°
3
Windvlaag: 4.3 m/s
99%
08:00
13°
1016.1 hPa 6.4 mm
100%
11.3°
3
Windvlaag: 4.4 m/s
99%
09:00
14°
1017.4 hPa 8.7 mm
100%
11.3°
4
Windvlaag: 3.9 m/s
97%
10:00
13°
1018.2 hPa 6.7 mm
100%
10.5°
4
Windvlaag: 3.9 m/s
99%
11:00
14°
1018.7 hPa 8.9 mm
100%
9.8°
4
Windvlaag: 3.6 m/s
98%
12:00
14°
1019.3 hPa 6.1 mm
100%
9.0°
5
Windvlaag: 3.4 m/s
94%
13:00
14°
1019.9 hPa 8.5 mm
100%
8.4°
5
Windvlaag: 3.3 m/s
96%
14:00
15°
1020.0 hPa 6.2 mm
100%
8.4°
4
Windvlaag: 2.9 m/s
98%
15:00
15°
1020.7 hPa 14.0 mm
100%
7.8°
4
Windvlaag: 2.5 m/s
90%
16:00
15°
1021.0 hPa 14.0 mm
100%
7.6°
3
Windvlaag: 2.2 m/s
90%
17:00
14°
1021.3 hPa 14.1 mm
100%
7.7°
3
Windvlaag: 1.8 m/s
90%
18:00
13°
1021.8 hPa 14.2 mm
100%
7.9°
2
Windvlaag: 1.8 m/s
93%
19:00
13°
1022.4 hPa 8.7 mm
100%
8.1°
2
Windvlaag: 2 m/s
95%
20:00
12°
1022.9 hPa 8.9 mm
100%
8.5°
2
Windvlaag: 1.9 m/s
92%
21:00
11°
1023.1 hPa 14.6 mm
100%
8.4°
1
Windvlaag: 3.8 m/s
90%
22:00
11°
1023.3 hPa 14.3 mm
100%
8.3°
1
Windvlaag: 2.7 m/s
87%
23:00
11°
1023.5 hPa 14.1 mm
100%
8.3°
1
Windvlaag: 1.6 m/s
88%
 08:01     18:30    Daglengte: 10:29 Dinsdag 22 Okt
00:00
10°
1023.8 hPa 13.7 mm
100%
8.2°
2
Windvlaag: 1.7 m/s
89%
01:00
10°
Voelt als: 9.3°
1023.9 hPa 13.8 mm
100%
8.1°
2
Windvlaag: 1.5 m/s
88%
02:00
Voelt als: 8.9°
1024.1 hPa 13.6 mm
100%
8.1°
1
Windvlaag: 0.4 m/s
90%
03:00
Voelt als: 7.8°
1025.5 hPa 40.5 mm
100%
7.5°
2
Windvlaag: 2 m/s
69%
04:00
Voelt als: 7.6°
1025.5 hPa 40.5 mm
100%
7.4°
2
Windvlaag: 2.5 m/s
57%
05:00
Voelt als: 7.5°
1025.6 hPa 40.5 mm
100%
7.3°
2
Windvlaag: 1.2 m/s
45%
06:00
Voelt als: 7.4°
1025.7 hPa 40.5 mm
100%
7.2°
2
Windvlaag: 0.7 m/s
33%
07:00
Voelt als: 6.9°
1025.6 hPa 40.5 mm
100%
7.1°
2
Windvlaag: 2.5 m/s
23%
08:00
Voelt als: 6.8°
1025.6 hPa 40.5 mm
100%
7.2°
2
Windvlaag: 0.7 m/s
21%
09:00
11°
1025.6 hPa   8.6°
3
Windvlaag: 0 m/s
14%
Temp/Neerslag /Baro Onweer/Dauwpunt
    Temp Baro Neerslag Dauwpunt Wind Bewolking  
 07:57     18:35    Daglengte: 10:38 Vandaag
11:00
13°
1010.1 hPa 14.9 mm 12.1°
3
88%
14:00
15°
1008.8 hPa 10.3 mm 12.8°
3
89%
17:00
15°
1008.1 hPa 13.2 mm 13.4°
1
90%
20:00
14°
1008.8 hPa 19.3 mm 13.0°
2
91%
23:00
13°
1008.3 hPa 24.6 mm 12.2°
1
80%
 07:58     18:33    Daglengte: 10:35 Morgen
02:00
13°
1008.2 hPa 17.0 mm 11.7°
1
49%
05:00
12°
1007.7 hPa   10.1°
1
18%
08:00
11°
1007.9 hPa   9.3°
1
34%
11:00
15°
1007.5 hPa   11.6°
1
56%
14:00
20°
1006.2 hPa   12.6°
2
61%
17:00
20°
1005.5 hPa   13.7°
2
50%
20:00
17°
1007.5 hPa   11.5°
1
87%
23:00
15°
1009.2 hPa   12.4°
1
59%
 08:00     18:31    Daglengte: 10:31 Maandag 21 Okt
02:00
14°
1011.1 hPa   11.2°
3
57%
05:00
14°
1013.3 hPa   11.1°
3
96%
08:00
13°
1016.1 hPa 19.1 mm 11.3°
3
99%
11:00
14°
1018.7 hPa 24.3 mm 9.8°
4
98%
14:00
15°
1020.0 hPa 20.7 mm 8.4°
4
98%
17:00
14°
1021.3 hPa 42.0 mm 7.7°
3
90%
20:00
12°
1022.9 hPa 31.7 mm 8.5°
2
92%
23:00
11°
1023.5 hPa 43.1 mm 8.3°
1
88%
 08:01     18:30    Daglengte: 10:29 Dinsdag 22 Okt
02:00
Voelt als: 8.9°
1024.1 hPa 41.1 mm 8.1°
1
90%
05:00
Voelt als: 7.5°
1025.6 hPa 121.4 mm 7.3°
2
45%
08:00
Voelt als: 6.8°
1025.6 hPa 121.4 mm 7.2°
2
21%
11:00
13°
1024.9 hPa 55.4 mm 9.5°
3
16%
14:00
15°
1024.3 hPa 55.4 mm 10.1°
4
19%
17:00
14°
1022.9 hPa 55.4 mm 10.3°
4
35%
20:00
12°
1021.8 hPa 55.4 mm 10.1°
3
51%
23:00
11°
1020.9 hPa 55.4 mm 9.4°
3
33%
 08:03     18:28    Daglengte: 10:25 Woensdag 23 Okt
02:00
Voelt als: 8.2°
1019.9 hPa 55.4 mm 8.7°
2
14%
05:00
Voelt als: 7.1°
1018.6 hPa 55.4 mm 7.7°
2
53%
08:00
Voelt als: 6.0°
1017.3 hPa 55.4 mm 6.8°
2
92%
11:00
12°
1015.9 hPa 55.4 mm 9.6°
2
62%
14:00
16°
1014.4 hPa 55.4 mm 12.1°
2
32%
17:00
14°
1013.0 hPa 55.4 mm 11.6°
2
17%
20:00
12°
1011.7 hPa 55.4 mm 10.8°
2
1%
23:00
11°
1010.6 hPa 55.4 mm 9.9°
2
46%
 08:04     18:26    Daglengte: 10:22 Donderdag 24 Okt
02:00
Voelt als: 9.4°
1009.6 hPa 55.4 mm 9.1°
1
92%
05:00
10°
Voelt als: 8.4°
1009.4 hPa 55.4 mm 9.1°
2
79%
08:00
10°
Voelt als: 7.9°
1009.2 hPa 55.4 mm 9.0°
4
67%
11:00
15°
1009.6 hPa 55.4 mm 11.2°
3
79%
14:00
19°
1009.9 hPa 55.4 mm 12.7°
2
92%
17:00
17°
1010.9 hPa 55.4 mm 12.3°
2
92%
20:00
14°
1012.2 hPa 55.4 mm 11.4°
2
92%
23:00
13°
1013.4 hPa 55.4 mm 10.8°
2
89%
 08:06     18:24    Daglengte: 10:18 Vrijdag 25 Okt
02:00
11°
1014.5 hPa 55.4 mm 10.1°
2
87%
05:00
11°
1015.4 hPa 55.4 mm 10.1°
1
89%
08:00
12°
1016.3 hPa 55.4 mm 10.1°
1
91%
11:00
15°
1016.3 hPa 55.4 mm 11.6°
2
56%
14:00
18°
1016.2 hPa 55.5 mm 12.6°
4
22%
17:00
17°
1017.2 hPa 55.5 mm 13.2°
4
20%
20:00
15°
1018.2 hPa 55.6 mm 13.4°
4
19%
23:00
13°
1019.0 hPa 55.6 mm 12.3°
3
56%
 08:07     18:23    Daglengte: 10:16 Zaterdag 26 Okt
02:00
11°
1019.7 hPa 55.6 mm 11.1°
1
92%
05:00
11°
1020.1 hPa 55.6 mm 11.1°
1
92%
08:00
11°
1020.4 hPa 111.1 mm 11.0°
1
92%
14:00
15°
1019.9 hPa 111.1 mm 12.6°
2
92%
20:00
13°
1019.8 hPa 111.1 mm 12.1°
2
88%
 08:09     18:21    Daglengte: 10:12 Zondag 27 Okt
02:00
12°
1020.4 hPa 111.1 mm 12.1°
1
92%
07:00
12°
1021.0 hPa 111.1 mm 11.7°
2
92%
13:00
15°
1021.3 hPa 111.1 mm 12.0°
1
92%
19:00
13°
1021.8 hPa 111.1 mm 11.8°
2
87%
 08:10     18:19    Daglengte: 10:09 Maandag 28 Okt
01:00
12°
1021.9 hPa 111.1 mm 11.3°
3
92%
07:00
12°
1021.7 hPa 111.1 mm 10.9°
2
89%
13:00
13°
1022.1 hPa 111.1 mm 10.6°
3
92%
19:00
14°
1015.1 hPa 111.9 mm 11.5°
2
0%
 08:12     18:17    Daglengte: 10:05 Dinsdag 29 Okt
01:00
12°
1016.0 hPa 111.9 mm 10.1°
1
1%
07:00
1020.0 hPa   6.2°
1
30%
13:00
15°
1018.9 hPa 0.4 mm 9.7°
1
33%
19:00
10°
1019.2 hPa   7.9°
1
38%
 08:13     18:16    Daglengte: 10:03 Woensdag 30 Okt
01:00
Voelt als: 8.2°
1019.7 hPa   6.6°
1
37%
07:00
Voelt als: 7.5°
1019.7 hPa 0.2 mm 6.0°
1
44%
13:00
15°
1018.6 hPa 0.3 mm 8.8°
0
49%
19:00
1019.1 hPa 0.3 mm 7.6°
0
45%
 08:15     18:14    Daglengte: 9:59 Donderdag 31 Okt
01:00
Voelt als: 7.8°
1019.7 hPa 0.4 mm 6.4°
1
42%
07:00
Voelt als: 6.5°
1019.6 hPa 0.3 mm 5.5°
1
42%
13:00
13°
1018.5 hPa 0.3 mm 7.8°
2
46%
19:00
Voelt als: 7.2°
1019.3 hPa 0.4 mm 6.2°
2
44%
 08:16     18:13    Daglengte: 9:57 Vrijdag 01 Nov
01:00
Voelt als: 5.5°
1019.7 hPa 1.0 mm 4.5°
1
40%
07:00
Voelt als: 4.8°
1019.9 hPa 0.9 mm 3.4°
1
43%
13:00
12°
1019.1 hPa 0.4 mm 5.7°
1
42%
19:00
Voelt als: 5.9°
1020.1 hPa 0.3 mm 4.2°
1
32%
 08:18     18:11    Daglengte: 9:53 Zaterdag 02 Nov
01:00
Voelt als: 5.0°
1020.5 hPa 0.1 mm 2.9°
1
30%
07:00
Voelt als: 4.1°
1020.2 hPa 0.2 mm 2.2°
1
28%
13:00
13°
1018.4 hPa 0.1 mm 5.3°
0
31%
19:00
Voelt als: 6.7°
1019.0 hPa 0.3 mm 4.0°
1
33%
 08:19     18:10    Daglengte: 9:51 Zondag 03 Nov
01:00
Voelt als: 5.2°
1019.4 hPa 0.1 mm 3.4°
1
37%
07:00
Voelt als: 4.4°
1018.9 hPa 0.6 mm 3.0°
1
39%
  CAPE Lifted Index Hail Supercell Tornado SRH 3km CL BTM PRES CL TOP PRES Swiss DWD icon SMHI TS
 07:57     18:35    Daglengte: 10:38 Vandaag
10:00 23 J/kg 3.9 K 0 % 0 % 0 % 0 m²/s² 0 0 4.08 61
11:00 7 J/kg 3.2 K 0 % 0 % 0 % 0 m²/s² 0 0 3.62 61
12:00 22 J/kg 3.3 K 0 % 0 % 0 % 0 m²/s² 0 0 4.08 61
13:00 1 J/kg 3.4 K 0 % 0 % 0 % 0 m²/s² 0 0 4.18 61
14:00 0 J/kg 2.2 K 0 % 0 % 0 % 0 m²/s² 0 0 2.41 61
15:00 0 J/kg 1.3 K 0 % 0 % 0 % 0 m²/s² 0 0 1.3 61
16:00 0 J/kg 0.8 K 0 % 0 % 0 % 0 m²/s² 0 0 1.67 61
17:00 2 J/kg 1.4 K 0 % 0 % 0 % 0 m²/s² 0 0 1.58 61
18:00 0 J/kg 0.5 K 0 % 0 % 0 % 0 m²/s² 0 0 0.83 61
19:00 4 J/kg 0.6 K 0 % 0 % 0 % 0 m²/s² 0 0 1.5 61
20:00 0 J/kg -0.3 K 0 % 0 % 0 % 0 m²/s² 0 0 0.12 61
21:00 0 J/kg 2.0 K 0 % 0 % 0 % 0 m²/s² 0 0 2 61
22:00 7 J/kg 1.3 K 0 % 0 % 0 % 0 m²/s² 0 0 1.42 80
23:00 0 J/kg 1.0 K 0 % 0 % 0 % 0 m²/s² 0 0 1.66 80
 07:58     18:33    Daglengte: 10:35 Morgen
00:00 0 J/kg -0.5 K 0 % 0 % 0 % 0 m²/s² 0 0 0.34 61
01:00 0 J/kg -0.5 K 0 % 0 % 0 % 0 m²/s² 0 0 0.1 80
02:00 0 J/kg -0.6 K 0 % 0 % 0 % 0 m²/s² 0 0 0.33 2
03:00 0 J/kg -0.3 K 0 % 0 % 0 % 0 m²/s² 0 0 1.38 3
04:00 0 J/kg 0.4 K 0 % 0 % 0 % 0 m²/s² 0 0 2.65 3
05:00 0 J/kg 1.4 K 0 % 0 % 0 % 0 m²/s² 0 0 2.78 3
06:00 0 J/kg 2.3 K 0 % 0 % 0 % 0 m²/s² 0 0 3.44 45
07:00 0 J/kg 2.3 K 0 % 0 % 0 % 0 m²/s² 0 0 3.23 45
08:00 0 J/kg 2.2 K 0 % 0 % 0 % 0 m²/s² 0 0 2.8 45
09:00 0 J/kg 1.9 K 0 % 0 % 0 % 0 m²/s² 0 0 2.5 3
10:00 0 J/kg 1.7 K 0 % 0 % 0 % 0 m²/s² 0 0 2.3 3
11:00 0 J/kg 1.2 K 0 % 0 % 0 % 0 m²/s² 0 0 1.8 3
12:00 0 J/kg 0.2 K 0 % 0 % 0 % 0 m²/s² 0 0 1.94 3
13:00 48 J/kg -0.8 K 0 % 0 % 0 % 0 m²/s² 0 0 1.69 3
14:00 151 J/kg -1.5 K 0 % 0 % 0 % 0 m²/s² 0 0 1.23 3
15:00 304 J/kg -2.3 K 0 % 0 % 0 % 0 m²/s² 0 0 -0.14 3
16:00 762 J/kg -4.1 K 0 % 0 % 0 % 0 m²/s² 0 0 -2.84 3
17:00 861 J/kg -3.6 K 0 % 0 % 0 % 0 m²/s² 0 0 -2.4 3
18:00 634 J/kg -3.0 K 0 % 0 % 0 % 0 m²/s² 0 0 -1.65 3
19:00 405 J/kg -2.7 K 0 % 0 % 0 % 0 m²/s² 0 0 -1.29 3
20:00 300 J/kg -1.8 K 0 % 0 % 0 % 0 m²/s² 0 0 -0.81 3
21:00 52 J/kg -0.5 K 0 % 0 % 0 % 0 m²/s² 0 0 -0.47 3
22:00 0 J/kg -0.1 K 0 % 0 % 0 % 0 m²/s² 0 0 -0.01 2
23:00 0 J/kg -0.7 K 0 % 0 % 0 % 0 m²/s² 0 0 -0.31 2
 08:00     18:31    Daglengte: 10:31 Maandag 21 Okt
00:00 0 J/kg -0.8 K 0 % 0 % 0 % 0 m²/s² 0 0 0.28 2
01:00 0 J/kg -0.4 K 0 % 0 % 0 % 0 m²/s² 0 0 0.83 2
02:00 0 J/kg 0.2 K 0 % 0 % 0 % 0 m²/s² 0 0 1.55 3
03:00 0 J/kg 0.8 K 0 % 0 % 0 % 0 m²/s² 0 0 2.42 3
04:00 0 J/kg 1.5 K 0 % 0 % 0 % 0 m²/s² 0 0 1.71 61
05:00 0 J/kg 2.4 K 0 % 0 % 0 % 0 m²/s² 0 0 3.72 61
06:00 0 J/kg 3.7 K 0 % 0 % 0 % 0 m²/s² 0 0 5.32 61
07:00 0 J/kg 5.7 K 0 % 0 % 0 % 0 m²/s² 0 0 7.2 61
08:00 0 J/kg 7.4 K 0 % 0 % 0 % 0 m²/s² 0 0 11.72 61
09:00 0 J/kg 8.7 K 0 % 0 % 0 % 0 m²/s² 0 0 11.94 61
10:00 0 J/kg 8.3 K 0 % 0 % 0 % 0 m²/s² 0 0 10.82 63
11:00 0 J/kg 8.8 K 0 % 0 % 0 % 0 m²/s² 0 0 12.4 61
12:00 0 J/kg 8.1 K 0 % 0 % 0 % 0 m²/s² 0 0 11.88 61
13:00 0 J/kg 7.6 K 0 % 0 % 0 % 0 m²/s² 0 0 11.08 61
14:00 0 J/kg 7.4 K 0 % 0 % 0 % 0 m²/s² 0 0 9.68 61
15:00 0 J/kg 7.1 K 0 % 0 % 0 % 0 m²/s² 0 0 8.42
16:00 0 J/kg 6.5 K 0 % 0 % 0 % 0 m²/s² 0 0 8.15
17:00 0 J/kg 6.2 K 0 % 0 % 0 % 0 m²/s² 0 0 7.61
18:00 0 J/kg 6.3 K 0 % 0 % 0 % 0 m²/s² 0 0 6.93
19:00 0 J/kg 7.0 K 0 % 0 % 0 % 0 m²/s² 0 0 8.74
20:00 0 J/kg 7.4 K 0 % 0 % 0 % 0 m²/s² 0 0 8.75
21:00 0 J/kg 8.0 K 0 % 0 % 0 % 0 m²/s² 0 0 9.2
22:00 0 J/kg 7.9 K 0 % 0 % 0 % 0 m²/s² 0 0 10.45
23:00 0 J/kg 8.0 K 0 % 0 % 0 % 0 m²/s² 0 0 11.27
 08:01     18:30    Daglengte: 10:29 Dinsdag 22 Okt
00:00 0 J/kg 7.6 K 0 % 0 % 0 % 0 m²/s² 0 0 10.45
01:00 0 J/kg 7.6 K 0 % 0 % 0 % 0 m²/s² 0 0 10.09
02:00 0 J/kg 7.8 K 0 % 0 % 0 % 0 m²/s² 0 0 10.29
03:00 0 J/kg 8.3 K 0 % 0 % 0 % 0 m²/s² 0 0 11.03
04:00 0 J/kg 8.6 K 0 % 0 % 0 % 0 m²/s² 0 0 11.48
05:00 0 J/kg 8.8 K 0 % 0 % 0 % 0 m²/s² 0 0 11.62
06:00 0 J/kg 9.2 K 0 % 0 % 0 % 0 m²/s² 0 0 11.66
07:00 0 J/kg 10.1 K 0 % 0 % 0 % 0 m²/s² 0 0 12.71
08:00 0 J/kg 10.4 K 0 % 0 % 0 % 0 m²/s² 0 0 12.95
09:00 0 J/kg 0.0 K 0 % 0 % 0 % 0 m²/s² 0 0 13.83
Temp Baro Wind Neerslag
  EWN Forecast EWN WRFDA DWD ICON FMI HIRLAM MET Norway GFS
 07:57     18:35    Daglengte: 10:38 Vandaag
11:00 13.3° 1010.1 hPa 2.6 m/s 14.9 mm 14.4° 1009.6 hPa 6.2 m/s 31.2 mm 13.4° 1010.4 hPa 2.6 m/s 21.7 mm 13.3° 1009.5 hPa 1.9 m/s 0.0 mm 13.4° 1010.2 hPa 1.9 m/s 7.8 mm 12.3° 1010.2 hPa 2.5 m/s
14:00 14.7° 1008.8 hPa 2.5 m/s 10.3 mm 13.7° 1007.4 hPa 3.2 m/s 51.0 mm 14.1° 1010.0 hPa 2.3 m/s 4.9 mm 16.7° 1008.1 hPa 1.5 m/s 0.0 mm 15.3° 1008.8 hPa 2.5 m/s 3.6 mm 12.5° 1009.4 hPa 0.9 m/s
17:00 14.8° 1008.1 hPa 1.5 m/s 13.2 mm 13.7° 1007.9 hPa 1.6 m/s 75.0 mm 14.0° 1009.6 hPa 1.7 m/s 4.0 mm 18.0° 1007.1 hPa 0.6 m/s 0.0 mm 15.5° 1007.8 hPa 1.4 m/s 1.7 mm 12.7° 1008.0 hPa 0.7 m/s
20:00 14.1° 1008.8 hPa 1.8 m/s 19.3 mm 13.8° 1007.5 hPa 3.3 m/s 99.8 mm 13.2° 1009.9 hPa 1.2 m/s 4.1 mm 16.3° 1007.4 hPa 1.5 m/s 0.0 mm 14.3° 1008.9 hPa 2.1 m/s 5.8 mm 12.2° 1008.4 hPa 1.0 m/s
23:00 13.3° 1008.3 hPa 1.4 m/s 24.6 mm 14.6° 1007.4 hPa 2.8 m/s 118.3 mm 13.1° 1009.0 hPa 0.6 m/s 2.6 mm 15.9° 1007.1 hPa 2.0 m/s 0.0 mm 12.9° 1008.6 hPa 1.3 m/s 6.1 mm 12.0° 1008.2 hPa 1.8 m/s
 07:58     18:33    Daglengte: 10:35 Morgen
02:00 12.5° 1008.2 hPa 1.0 m/s 17.0 mm 14.2° 1007.4 hPa 0.6 m/s 120.9 mm 12.6° 1009.2 hPa 0.8 m/s 1.6 mm 13.6° 1007.4 hPa 1.3 m/s 0.0 mm 11.6° 1008.3 hPa 1.2 m/s 0.6 mm 11.2° 1008.2 hPa 1.0 m/s
05:00 11.7° 1007.7 hPa 1.2 m/s 0.0 mm 12.3° 1006.2 hPa 0.4 m/s 121.0 mm 11.8° 1008.5 hPa 0.6 m/s 0.1 mm 11.3° 1007.4 hPa 1.3 m/s 0.0 mm 11.7° 1007.7 hPa 1.5 m/s 0.0 mm 10.4° 1007.1 hPa 0.8 m/s
08:00 10.9° 1007.9 hPa 1.3 m/s 0.0 mm 12.2° 1005.4 hPa 2.7 m/s 121.0 mm 11.3° 1008.8 hPa 0.8 m/s 0.0 mm 10.2° 1008.0 hPa 1.2 m/s 0.0 mm 10.8° 1007.5 hPa 1.7 m/s 0.0 mm 9.9° 1007.4 hPa 0.6 m/s
11:00 15.1° 1007.5 hPa 1.3 m/s 0.0 mm 19.8° 1005.4 hPa 1.8 m/s 121.0 mm 14.4° 1009.6 hPa 0.9 m/s 0.0 mm 15.0° 1007.0 hPa 0.9 m/s 0.0 mm 15.0° 1007.3 hPa 1.5 m/s 0.0 mm 14.4° 1007.6 hPa 1.2 m/s
14:00 20.0° 1006.2 hPa 2.1 m/s 0.0 mm 24.7° 1002.3 hPa 4.5 m/s 121.0 mm 17.3° 1009.5 hPa 1.2 m/s 0.0 mm 21.3° 1005.6 hPa 2.1 m/s 0.0 mm 20.2° 1006.0 hPa 2.1 m/s 0.0 mm 18.3° 1006.5 hPa 1.2 m/s
17:00 20.4° 1005.5 hPa 1.8 m/s 0.0 mm 24.6° 1001.9 hPa 3.1 m/s 121.1 mm 17.6° 1009.0 hPa 2.0 m/s 0.0 mm 22.9° 1004.9 hPa 4.0 m/s 0.0 mm 20.3° 1005.2 hPa 0.8 m/s 0.0 mm 18.6° 1005.9 hPa 1.5 m/s
20:00 16.5° 1007.5 hPa 1.4 m/s 0.0 mm 22.1° 1003.7 hPa 4.6 m/s 121.4 mm 14.9° 1010.6 hPa 1.1 m/s 0.0 mm 20.5° 1007.4 hPa 3.8 m/s 0.0 mm 16.0° 1007.3 hPa 0.9 m/s 0.0 mm 14.8° 1007.8 hPa 2.0 m/s
23:00 14.9° 1009.2 hPa 1.4 m/s 0.0 mm 19.3° 1005.9 hPa 3.9 m/s 121.4 mm 13.9° 1011.9 hPa 0.6 m/s 0.0 mm 17.8° 1010.2 hPa 4.0 m/s 0.0 mm 14.6° 1009.1 hPa 0.7 m/s 0.0 mm 13.7° 1009.4 hPa 1.2 m/s
 08:00     18:31    Daglengte: 10:31 Maandag 21 Okt
02:00 13.6° 1011.1 hPa 2.9 m/s 0.0 mm 16.5° 1007.6 hPa 2.7 m/s 121.4 mm 13.1° 1013.1 hPa 0.7 m/s 0.0 mm 16.2° 1012.4 hPa 5.1 m/s 0.0 mm 13.3° 1011.0 hPa 3.2 m/s 0.0 mm 14.0° 1011.2 hPa 1.2 m/s
05:00 13.9° 1013.3 hPa 3.0 m/s 0.0 mm 15.6° 1009.3 hPa 3.5 m/s 121.4 mm 12.7° 1014.9 hPa 1.1 m/s 1.9 mm 13.9° 1013.4 hPa 3.1 m/s 0.3 mm 13.7° 1013.6 hPa 5.9 m/s
08:00 13.3° 1016.1 hPa 2.6 m/s 19.1 mm 13.7° 1011.2 hPa 3.4 m/s 121.4 mm 13.0° 1017.3 hPa 1.2 m/s 2.3 mm 13.3° 1016.5 hPa 2.6 m/s 1.3 mm 12.0° 1016.0 hPa 3.0 m/s
11:00 13.5° 1018.7 hPa 3.9 m/s 24.3 mm 13.5° 1014.3 hPa 4.8 m/s 121.4 mm 14.7° 1018.8 hPa 1.5 m/s 4.5 mm 13.3° 1020.1 hPa 4.3 m/s 0.9 mm 11.6° 1018.3 hPa 3.0 m/s
14:00 14.5° 1020.0 hPa 3.7 m/s 20.7 mm 14.4° 1016.5 hPa 4.6 m/s 121.4 mm 16.1° 1020.0 hPa 1.8 m/s 0.8 mm 14.4° 1021.8 hPa 4.2 m/s 0.7 mm 12.9° 1019.8 hPa 1.7 m/s
17:00 14.4° 1021.3 hPa 2.6 m/s 42.0 mm 15.4° 1017.3 hPa 4.4 m/s 121.4 mm 14.4° 1022.9 hPa 2.5 m/s 0.0 mm 12.0° 1020.4 hPa 1.4 m/s
20:00 11.9° 1022.9 hPa 1.7 m/s 31.7 mm 11.0° 1019.6 hPa 2.4 m/s 121.4 mm 11.9° 1024.5 hPa 1.2 m/s 0.4 mm 10.9° 1022.3 hPa 2.3 m/s
23:00 10.6° 1023.5 hPa 1.4 m/s 43.1 mm 9.8° 1020.9 hPa 2.5 m/s 121.4 mm 10.4° 1025.2 hPa 1.4 m/s 10.6° 1023.4 hPa 1.7 m/s
 08:01     18:30    Daglengte: 10:29 Dinsdag 22 Okt
02:00 9.3° 1024.1 hPa 1.5 m/s 41.1 mm 8.6° 1022.2 hPa 1.6 m/s 121.4 mm 8.9° 1026.0 hPa 1.7 m/s 10.7° 1024.1 hPa 0.5 m/s
05:00 8.5° 1025.6 hPa 1.9 m/s 121.4 mm 7.7° 1022.5 hPa 1.1 m/s 121.4 mm 8.6° 1026.1 hPa 2.0 m/s 10.7° 1023.8 hPa 0.6 m/s
08:00 8.2° 1025.6 hPa 2.4 m/s 121.4 mm 7.5° 1022.1 hPa 2.8 m/s 121.4 mm 8.3° 1026.2 hPa 2.3 m/s 10.6° 1023.2 hPa 1.9 m/s
11:00 12.7° 1024.9 hPa 3.2 m/s 55.4 mm 12.7° 1025.1 hPa 3.2 m/s 12.8° 1022.7 hPa 2.7 m/s 55.4 mm
14:00 14.9° 1024.3 hPa 3.7 m/s 55.4 mm 14.9° 1024.5 hPa 3.7 m/s 14.9° 1021.7 hPa 3.5 m/s 55.4 mm
17:00 13.6° 1022.9 hPa 3.6 m/s 55.4 mm 13.5° 1023.2 hPa 3.5 m/s 14.6° 1019.4 hPa 3.8 m/s 55.4 mm
20:00 12.0° 1021.8 hPa 3.3 m/s 55.4 mm 12.1° 1022.0 hPa 3.4 m/s 11.5° 1019.5 hPa 2.8 m/s 55.4 mm
23:00 10.6° 1020.9 hPa 2.6 m/s 55.4 mm 10.6° 1021.0 hPa 2.7 m/s 10.7° 1020.0 hPa 2.0 m/s 55.4 mm
 08:03     18:28    Daglengte: 10:25 Woensdag 23 Okt
02:00 9.2° 1019.9 hPa 2.0 m/s 55.4 mm 9.1° 1020.0 hPa 2.0 m/s 9.7° 1019.3 hPa 1.7 m/s 55.4 mm
05:00 8.1° 1018.6 hPa 1.9 m/s 55.4 mm 8.0° 1018.6 hPa 1.9 m/s 9.0° 1018.1 hPa 2.1 m/s 55.4 mm
08:00 7.0° 1017.3 hPa 1.7 m/s 55.4 mm 6.9° 1017.3 hPa 1.7 m/s 8.4° 1017.1 hPa 2.1 m/s 55.4 mm
11:00 11.5° 1015.9 hPa 1.7 m/s 55.4 mm 11.5° 1015.9 hPa 1.6 m/s 11.7° 1015.6 hPa 2.4 m/s 55.4 mm
14:00 16.0° 1014.4 hPa 1.7 m/s 55.4 mm 16.1° 1014.5 hPa 1.6 m/s 14.7° 1013.7 hPa 2.4 m/s 55.4 mm
17:00 14.0° 1013.0 hPa 2.1 m/s 55.4 mm 13.9° 1013.1 hPa 1.9 m/s 15.0° 1011.5 hPa 3.2 m/s 55.4 mm
20:00 11.7° 1011.7 hPa 2.2 m/s 55.4 mm 11.7° 1011.7 hPa 2.3 m/s 12.3° 1011.5 hPa 1.6 m/s 55.4 mm
23:00 10.6° 1010.6 hPa 1.7 m/s 55.4 mm 10.5° 1010.7 hPa 1.6 m/s 11.8° 1010.5 hPa 2.1 m/s 55.4 mm
 08:04     18:26    Daglengte: 10:22 Donderdag 24 Okt
02:00 9.4° 1009.6 hPa 1.1 m/s 55.4 mm 9.3° 1009.6 hPa 1.0 m/s 10.9° 1009.4 hPa 1.7 m/s 55.4 mm
05:00 9.6° 1009.4 hPa 2.4 m/s 55.4 mm 9.4° 1009.4 hPa 2.4 m/s 10.9° 1010.1 hPa 2.4 m/s 55.4 mm
08:00 9.7° 1009.2 hPa 3.6 m/s 55.4 mm 9.6° 1009.1 hPa 3.7 m/s 11.3° 1010.7 hPa 2.5 m/s 55.4 mm
11:00 14.5° 1009.6 hPa 3.0 m/s 55.4 mm 14.5° 1009.5 hPa 3.1 m/s 15.0° 1010.8 hPa 2.4 m/s 55.4 mm
14:00 19.3° 1009.9 hPa 2.5 m/s 55.4 mm 19.4° 1009.8 hPa 2.5 m/s 18.3° 1010.9 hPa 2.2 m/s 55.4 mm
17:00 16.7° 1010.9 hPa 2.3 m/s 55.4 mm 16.6° 1011.0 hPa 2.3 m/s 17.9° 1010.2 hPa 2.3 m/s 55.4 mm
20:00 13.8° 1012.2 hPa 2.2 m/s 55.4 mm 13.8° 1012.2 hPa 2.1 m/s 14.2° 1012.0 hPa 3.3 m/s 55.4 mm
23:00 12.6° 1013.4 hPa 1.9 m/s 55.4 mm 12.5° 1013.4 hPa 1.8 m/s 13.3° 1014.0 hPa 2.8 m/s 55.4 mm
 08:06     18:24    Daglengte: 10:18 Vrijdag 25 Okt
02:00 11.3° 1014.5 hPa 1.6 m/s 55.4 mm 11.2° 1014.5 hPa 1.5 m/s 12.3° 1014.5 hPa 2.5 m/s 55.4 mm
05:00 11.5° 1015.4 hPa 1.3 m/s 55.4 mm 11.4° 1015.5 hPa 1.2 m/s 12.0° 1015.0 hPa 2.7 m/s 55.4 mm
08:00 11.7° 1016.3 hPa 1.0 m/s 55.4 mm 11.7° 1016.4 hPa 0.9 m/s 11.9° 1015.1 hPa 2.1 m/s 55.4 mm
11:00 15.1° 1016.3 hPa 2.4 m/s 55.4 mm 15.2° 1016.3 hPa 2.5 m/s 14.8° 1015.5 hPa 1.3 m/s 55.4 mm
14:00 18.4° 1016.2 hPa 3.8 m/s 55.5 mm 18.6° 1016.3 hPa 4.0 m/s 16.5° 1015.1 hPa 1.1 m/s 55.5 mm
17:00 16.6° 1017.2 hPa 3.8 m/s 55.5 mm 16.6° 1017.3 hPa 4.0 m/s 16.1° 1015.1 hPa 2.5 m/s 55.5 mm
20:00 14.5° 1018.2 hPa 3.8 m/s 55.6 mm 14.6° 1018.4 hPa 3.9 m/s 13.9° 1016.1 hPa 2.4 m/s 55.6 mm
23:00 12.9° 1019.0 hPa 2.6 m/s 55.6 mm 12.9° 1019.2 hPa 2.6 m/s 13.4° 1017.0 hPa 2.2 m/s 55.6 mm
 08:07     18:23    Daglengte: 10:16 Zaterdag 26 Okt
02:00 11.4° 1019.7 hPa 1.3 m/s 55.6 mm 11.2° 1020.0 hPa 1.3 m/s 13.1° 1016.9 hPa 1.8 m/s 55.6 mm
05:00 11.3° 1020.1 hPa 1.1 m/s 55.6 mm 11.1° 1020.4 hPa 1.1 m/s 13.1° 1016.9 hPa 1.4 m/s 55.6 mm
08:00 11.2° 1020.4 hPa 0.8 m/s 55.6 mm 11.1° 1020.7 hPa 0.8 m/s 12.9° 1017.0 hPa 1.3 m/s 55.6 mm
14:00 15.2° 1019.9 hPa 1.6 m/s 55.6 mm 15.0° 1020.3 hPa 1.6 m/s 17.1° 1015.8 hPa 2.0 m/s 55.6 mm
20:00 12.8° 1019.8 hPa 1.9 m/s 55.6 mm 12.7° 1020.2 hPa 2.0 m/s 13.5° 1015.1 hPa 1.2 m/s 55.6 mm
 08:09     18:21    Daglengte: 10:12 Zondag 27 Okt
02:00 12.3° 1020.4 hPa 1.5 m/s 55.6 mm 12.4° 1020.9 hPa 1.6 m/s 11.7° 1014.9 hPa 0.3 m/s 55.6 mm
07:00 12.0° 1021.0 hPa 1.9 m/s 55.6 mm 12.2° 1021.6 hPa 2.0 m/s 10.2° 1014.8 hPa 0.9 m/s 55.6 mm
13:00 14.8° 1021.3 hPa 1.5 m/s 55.6 mm 14.5° 1022.0 hPa 1.5 m/s 18.2° 1014.0 hPa 1.4 m/s 55.6 mm
19:00 12.6° 1021.8 hPa 2.3 m/s 55.6 mm 12.5° 1022.5 hPa 2.5 m/s 13.7° 1014.0 hPa 0.2 m/s 55.6 mm
 08:10     18:19    Daglengte: 10:09 Maandag 28 Okt
01:00 11.8° 1021.9 hPa 3.2 m/s 55.6 mm 11.8° 1022.5 hPa 3.4 m/s 11.9° 1015.2 hPa 0.7 m/s 55.6 mm
07:00 11.5° 1021.7 hPa 2.0 m/s 55.6 mm 11.6° 1022.3 hPa 2.1 m/s 10.7° 1015.6 hPa 1.4 m/s 55.6 mm
13:00 13.3° 1022.1 hPa 3.2 m/s 55.6 mm 12.8° 1022.8 hPa 3.4 m/s 18.7° 1015.0 hPa 0.9 m/s 55.6 mm
19:00 14.0° 1015.1 hPa 1.5 m/s 55.9 mm 14.0° 1015.1 hPa 1.5 m/s 55.9 mm
 08:12     18:17    Daglengte: 10:05 Dinsdag 29 Okt
01:00 11.7° 1016.0 hPa 0.7 m/s 56.0 mm 11.7° 1016.0 hPa 0.7 m/s 56.0 mm
07:00 7.8° 1020.0 hPa 0.7 m/s 0.0 mm
13:00 15.5° 1018.9 hPa 0.6 m/s 0.4 mm
19:00 9.8° 1019.2 hPa 0.8 m/s 0.0 mm
 08:13     18:16    Daglengte: 10:03 Woensdag 30 Okt
01:00 8.2° 1019.7 hPa 0.7 m/s 0.0 mm
07:00 7.5° 1019.7 hPa 0.7 m/s 0.2 mm
13:00 14.6° 1018.6 hPa 0.3 m/s 0.3 mm
19:00 9.5° 1019.1 hPa 0.5 m/s 0.3 mm
 08:15     18:14    Daglengte: 9:59 Donderdag 31 Okt
01:00 7.8° 1019.7 hPa 0.5 m/s 0.4 mm
07:00 7.0° 1019.6 hPa 1.3 m/s 0.3 mm
13:00 13.1° 1018.5 hPa 2.1 m/s 0.3 mm
19:00 8.2° 1019.3 hPa 2.0 m/s 0.4 mm
 08:16     18:13    Daglengte: 9:57 Vrijdag 01 Nov
01:00 6.2° 1019.7 hPa 1.4 m/s 1.0 mm
07:00 5.3° 1019.9 hPa 1.1 m/s 0.9 mm
13:00 11.8° 1019.1 hPa 1.1 m/s 0.4 mm
19:00 6.6° 1020.1 hPa 1.4 m/s 0.3 mm
 08:18     18:11    Daglengte: 9:53 Zaterdag 02 Nov
01:00 5.1° 1020.5 hPa 0.9 m/s 0.1 mm
07:00 4.1° 1020.2 hPa 0.9 m/s 0.2 mm
13:00 12.8° 1018.4 hPa 0.3 m/s 0.1 mm
19:00 6.7° 1019.0 hPa 0.5 m/s 0.3 mm
 08:19     18:10    Daglengte: 9:51 Zondag 03 Nov
01:00 5.9° 1019.4 hPa 1.3 m/s 0.1 mm
07:00 5.3° 1018.9 hPa 1.4 m/s 0.6 mm
FMI Hirlam - 7.5 km EWN WRFDA - 12 km DWD ICON - 7 km GFS - 25 km Basiskaart






























































Updatetijd (Europe/Amsterdam) Resolutie Lengte Stap
FMI Hirlam 07:00, 13:00, 19:00, 01:00 7.5 km 49h 1h
EWN WRFDA 09:15, 15:15, 21:15, 03:15 12 km 73h 1h
DWD ICON 11:45, 17:45, 23:45, 05:45 7 km 75h 1h
GFS 08:45, 14:45, 20:45, 02:45 25 km 237h 3h
30+ mm
25-30 mm
20-25 mm
15-20 mm
10-15 mm
6-10 mm
4-6 mm
2-4 mm
1-2 mm
0.5-1 mm
0.2-0.5 mm
0.1-0.2 mm
30+ mm
25-30 mm
20-25 mm
15-20 mm
10-15 mm
6-10 mm
4-6 mm
2-4 mm
1-2 mm
0.5-1 mm
0.2-0.5 mm
0.1-0.2 mm
Sneeuwval
Natte sneeuw
Hagel
Vorst
30+ mm
25-30 mm
20-25 mm
15-20 mm
10-15 mm
6-10 mm
4-6 mm
2-4 mm
1-2 mm
0.5-1 mm
0.2-0.5 mm
0.1-0.2 mm
Sneeuwval
Natte sneeuw
Hagel
Vorst
Onweer
50 mm
40 mm
30 mm
26 mm
22 mm
18 mm
14 mm
10 mm
9 mm
8 mm
7 mm
6 mm
5 mm
4.5 mm
4 mm
3.5 mm
3 mm
2.5 mm
2 mm
1.5 mm
1 mm
0.8 mm
0.6 mm
0.4 mm
0.2 mm
0.05 mm
35°
30°
25°
20°
15°
10°
-5°
-10°
-15°
-20°
-25°
-30°
-35°
33> m/s
29 m/s
25 m/s
21 m/s
17 m/s
14 m/s
11 m/s
8 m/s
5 m/s
3 m/s
0 m/s
2600 J/kg
2400 J/kg
2200 J/kg
2000 J/kg
1800 J/kg
1600 J/kg
1400 J/kg
1200 J/kg
1000 J/kg
800 J/kg
600 J/kg
400 J/kg
200 J/kg
70 dBZ
65 dBZ
60 dBZ
55 dBZ
50 dBZ
45 dBZ
40 dBZ
35 dBZ
30 dBZ
25 dBZ
20 dBZ
15 dBZ
10 dBZ
5 dBZ
-1 K
-2 K
-3 K
-4 K
-5 K
-6 K
-7 K
-8 K
-9 K
950 m²/s²
900 m²/s²
850 m²/s²
800 m²/s²
750 m²/s²
700 m²/s²
650 m²/s²
600 m²/s²
550 m²/s²
500 m²/s²
450 m²/s²
400 m²/s²
350 m²/s²
300 m²/s²
250 m²/s²
200 m²/s²
150 m²/s²
100 m²/s²
46 m/s
44 m/s
42 m/s
40 m/s
38 m/s
36 m/s
34 m/s
32 m/s
30 m/s
28 m/s
26 m/s
24 m/s
22 m/s
20 m/s
16 m/s
12 m/s
8 m/s
4 m/s
30 m/s
28 m/s
26 m/s
24 m/s
22 m/s
20 m/s
18 m/s
16 m/s
14 m/s
12 m/s
10 m/s
8 m/s
6 m/s
4 m/s
2 m/s
3.0
2.8
2.6
2.4
2.2
2.0
1.8
1.6
1.4
1.2
1.0
0.8
0.6
0.4
0.2
15
14
13
12
11
10
9
8
7
6
5
4
3
2
1
90%
80%
70%
60%
50%
40%
30%
20%
10%
42
40
38
36
34
32
30
28
26
24
22
20
18
16
14
12
90+ cm
80-90 cm
70-80 cm
60-70 cm
50-60 cm
40-50 cm
30-40 cm
20-30 cm
10-20 cm
1-10 cm
Sneeuwval
Natte sneeuw
Regen
>120 mm
115 mm
110 mm
105 mm
100 mm
95 mm
90 mm
85 mm
80 mm
75 mm
70 mm
65 mm
60 mm
55 mm
50 mm
45 mm
45 mm
40 mm
35 mm
30 mm
25 mm
20 mm
15 mm
10 mm
5 mm
0.1 mm
960 hPa
880 hPa
800 hPa
720 hPa
640 hPa
560 hPa
584 gpdm
568 gpdm
552 gpdm
536 gpdm
520 gpdm
504 gpdm
488 gpdm
Extreem zwaar Noodweer Kans op onweer
15% 15% 5% 50% 15%

Dag




Kaart






35°
30°
25°
20°
15°
10°
-5°
-10°
-15°
-20°
-25°
-30°
-35°
33> m/s
29 m/s
25 m/s
21 m/s
17 m/s
14 m/s
11 m/s
8 m/s
5 m/s
3 m/s
0 m/s
Extreem zwaar Noodweer Kans op onweer
15% 15% 5% 50% 15%
>120 mm
115 mm
110 mm
105 mm
100 mm
95 mm
90 mm
85 mm
80 mm
75 mm
70 mm
65 mm
60 mm
55 mm
50 mm
45 mm
45 mm
40 mm
35 mm
30 mm
25 mm
20 mm
15 mm
10 mm
5 mm
0.1 mm
Onweer risico kaarten - De groene en gele kleur geeft de kans op onweer aan binnen 40 km van een punt. Oranje, rood en violet hebben hetzelfde niveau zoals je het ziet op estofex.org waaronder ook de kans op hagel en supercells.

dBZ - dBZ staat voor decibel ten opzichte van Z.

Cape - Convective available potential energy (CAPE), is de totale hoeveelheid energie die een luchtpakketje nodig heeft om zover mogelijk te stijgen in de atmosfeer.

K Index - K-Index wordt berekend door de Vertical Totals (VT) en het verschil tussen de 850 hPa temperatuur en de 700 hPa dauwpuntsdepressie (Tdd 700) bij elkaar op te tellen.

TT Index - Convectie index wordt gebruikt voor het voorspellen van zware buien of onweer.

WRF - The Weather Research and Forecasting (WRF) is een volgende generatie mesoscale numeriek weersvoorspelling systeem ontworpen om zowel de operationele planning als het atmosferisch onderzoek te dienen. WRF is a cooperatie tussen het National Center for Atmospheric Research (NCAR), National Centers for Environmental Prediction (NCEP), Forecast Systems Laboratory (FSL), Air Force Weather Agency (AFWA), Naval Research Laboratory, University of Oklahoma, en de Federal Aviation Administration (FAA). Deze software draait op onze server.

WRFDA - Een meer geavanceerde versie van WRF

Arome - Het 2.5 km Arome model. Verzorgd door het Noors Meteorologisch Instituut.

MET Norway - De proff-default 4km meteorological data is een beste keus selectie van meteorologische modellen gebruikt door met.no die zijn geïnterpoleerd tot een gemeenschappelijke dataset. Verzorgd door het Noorse Meteorologisch Instituut.

SMHI - Het Hirlam model verzorgd door het Zweeds meteorologisch instituut.

FMI - Het Hirlam model verzorgd door het Fins meteorologisch instituut. Dekking alleen Finland.

GFS - Het Global Forecast Systeem (GFS) is een wereldwijd numerieke weersvoorspelling computermode